(22) Kalliope
(22) Kalliope
Epoch 2008 Nov. 30.0 TT = JDT 2454800.5 Goffin
M 162.56277 (2000.0) P Q
n 0.19881333 Peri. 355.72593 +0.46824081 -0.85656123
a 2.9074062 Node 66.22780 +0.81755272 +0.32685338
e 0.1027816 Incl. 13.71123 +0.33519858 +0.39933660
P 4.96 H 6.45 G 0.21 U 0
From 1675 observations at 90 oppositions, 1852-2003, mean residual 0".56.
An explanation of the orbital
elements is available.These orbital elements are also available in forms suitable for loading into a number of popular planetarium-type software programs.
Personalized ephemerides for this object (and others) can be generated using the MPES.
Date TT R. A. (2000) Decl. Delta r Elong. Phase V 2009 04 11 17 40.07 -24 12.2 2.639 3.203 115.7 16.4 11.9 2009 04 16 17 40.38 -24 28.0 2.575 3.203 120.5 15.7 11.8 2009 04 21 17 40.10 -24 44.3 2.513 3.202 125.4 14.8 11.7 2009 04 26 17 39.21 -25 00.8 2.455 3.201 130.5 13.8 11.7 2009 05 01 17 37.70 -25 17.7 2.401 3.200 135.6 12.7 11.6 2009 05 06 17 35.59 -25 34.7 2.352 3.199 140.9 11.5 11.5 2009 05 11 17 32.90 -25 51.6 2.308 3.198 146.3 10.1 11.4 2009 05 16 17 29.66 -26 08.2 2.270 3.197 151.8 8.6 11.3 2009 05 21 17 25.93 -26 24.3 2.238 3.196 157.4 7.0 11.2 2009 05 26 17 21.78 -26 39.5 2.212 3.194 163.0 5.3 11.1 2009 05 31 17 17.29 -26 53.8 2.193 3.193 168.5 3.6 11.0 2009 06 05 17 12.57 -27 06.8 2.182 3.192 173.5 2.1 10.9 2009 06 10 17 07.74 -27 18.5 2.177 3.190 175.5 1.4 10.8 2009 06 15 17 02.90 -27 28.7 2.180 3.189 171.9 2.6 10.9 2009 06 20 16 58.17 -27 37.4 2.189 3.187 166.7 4.2 11.0 2009 06 25 16 53.66 -27 44.9 2.206 3.185 161.2 5.9 11.1 2009 06 30 16 49.49 -27 51.2 2.230 3.183 155.6 7.6 11.2 2009 07 05 16 45.73 -27 56.5 2.260 3.182 150.1 9.2 11.3 2009 07 10 16 42.47 -28 01.2 2.295 3.180 144.7 10.6 11.4 2009 07 15 16 39.76 -28 05.4 2.336 3.178 139.4 12.0 11.5 2009 07 20 16 37.62 -28 09.4 2.382 3.176 134.2 13.3 11.6 2009 07 25 16 36.10 -28 13.4 2.433 3.173 129.2 14.4 11.6 2009 07 30 16 35.21 -28 17.6 2.487 3.171 124.2 15.3 11.7 2009 08 04 16 34.95 -28 22.2 2.545 3.169 119.4 16.2 11.8 2009 08 09 16 35.29 -28 27.2 2.605 3.167 114.8 16.9 11.9